KUIPER-00225

导读 | 豆包AI

KUIPER-00225是亚马逊柯伊伯(Project Kuiper)星座的低轨互联网卫星,于2026年2月12日由法国发射。作为亚马逊全球卫星互联网项目组成部分,它运行在低地球轨道,旨在为全球提供高速低延迟宽带网络,尤其服务偏远地区,与AWS云服务深度整合,可支撑企业、物联网及应急通信等多元场景,是柯伊伯星座大规模部署阶段的重要组成卫星。

基本信息
目录编号:
67784
目录名称:
KUIPER-00225
国际标识:
2026-030W
轨道中心:
EARTH
卫星名称:
KUIPER-00225
卫星全名:
KUIPER-00225
卫星状态:
在轨 (已飞行30 天)
发射日期:
2026-02-12 UTC
国别 :
美国 (US)
星等 :
--
轨道信息
数据来源 国际轨道数据 AOE轨道数据
星历时间 2026-03-14T04:36:10+0800
18小时前
查看轨道信息
2026-03-10T10:00:00+0800
4天前
查看轨道信息
半长轴 6835.694km 6836.167km
偏心率 0.0006594 0.0004807
轨道倾角 51.883° 51.882°
近地点辐角 35.534° 37.058°
升交点赤经 199.011° 217.229°
平近点角 324.609° 314.246°
近地点 453.049km 454.743km
远地点 462.065km 461.317km
周期 93.742分钟 93.752分钟
每日圈数 15.361333 15.359737
详细信息
使用方式:
暂无
2D轨道图
3D轨道图
轨道高度分析图
轨道倾角分析图
轨道综合分析图
查看轨道综合分析图